This demonstration page uses our WeatherBlox Daily Observations layout. Learn more.

Left ArrowRight Arrow

39.51506, -84.39828

Hourly Observations for October 28, 2020

Temp ( °F °C ) Dew Point ( °F °C ) Humidity (%) Winds ( mph kmh ) Pressure ( in mb ) Visibility ( mi km ) Precip ( " mm )
12:15 am 00:15 Cloudy 47 8.2 47 8.2 100 100 Calm 30.17 1022 7 11.26538 0 0
12:35 am 00:35 Cloudy with Drizzle 47 8.2 47 8.2 100 100 Calm 30.16 1021 3 4.82802 0.01 0.254
12:55 am 00:55 Cloudy with Light Rain 46 8 46 8 100 100 Calm 30.15 1021 2 3.21868 0.03 0.762
1:15 am 01:15 Cloudy with Drizzle 46 8 N/A N/A Calm 30.15 1021 2.5 4.02335 0.01 0.254
1:35 am 01:35 Mostly Clear with Drizzle 46 8 N/A N/A Calm 30.15 1021 3 4.82802 0.01 0.254
1:55 am 01:55 Mostly Cloudy with Light Rain 46 8 N/A N/A Calm 30.14 1021 3.5 5.63269 0.01 0.254
2:15 am 02:15 Cloudy with Mist and Fog 46 8 N/A N/A Calm 30.14 1021 3.5 5.63269 0 0
2:35 am 02:35 Cloudy with Haze 46 8 N/A N/A Calm 30.14 1021 4 6.43736 0 0
2:55 am 02:55 Cloudy with Haze 46 8 N/A N/A Calm 30.14 1021 5 8.0467 0 0
3:15 am 03:15 Cloudy with Haze 48 9 N/A N/A Calm 30.14 1021 7 11.26538 0 0
3:35 am 03:35 Cloudy with Haze 48 9 N/A N/A Calm 30.15 1021 5 8.0467 0 0
3:55 am 03:55 Cloudy with Haze 48 9 N/A N/A Calm 30.15 1021 7 11.26538 0 0
4:15 am 04:15 Cloudy with Haze 48 9 N/A N/A Calm 30.13 1020 7 11.26538 0 0
4:35 am 04:35 Cloudy with Mist and Fog 48 8.7 47 8.6 99 99 Calm 30.12 1020 7 11.26538 0 0
4:55 am 04:55 Cloudy with Mist and Fog 48 8.9 48 8.8 99 99 Calm 30.12 1020 5 8.0467 0 0
5:15 am 05:15 Cloudy with Mist and Fog 48 8.9 48 8.8 99 99 Calm 30.12 1020 5 8.0467 0 0
5:35 am 05:35 Cloudy with Mist and Fog 48 8.9 48 8.8 99 99 Calm 30.12 1020 5 8.0467 0 0
5:55 am 05:55 Cloudy with Mist and Fog 48 8.8 48 8.7 99 99 Calm 30.1 1019 7 11.26538 0 0
6:15 am 06:15 Cloudy with Mist and Fog 48 8.9 48 8.8 99 99 Calm 30.11 1020 5 8.0467 0 0
6:35 am 06:35 Cloudy with Mist and Fog 48 8.9 48 8.8 99 99 Calm 30.1 1019 7 11.26538 0 0
6:55 am 06:55 Cloudy with Mist and Fog 48 9 48 8.8 99 99 SW 5 7 30.09 1019 7 11.26538 0 0
7:15 am 07:15 Cloudy with Mist and Fog 48 9 48 8.8 99 99 Calm 30.1 1019 5 8.0467 0 0
7:35 am 07:35 Cloudy with Mist and Fog 48 8.9 48 8.8 99 99 Calm 30.1 1019 7 11.26538 0 0
7:55 am 07:55 Cloudy with Mist and Fog 48 9 48 8.9 99 99 Calm 30.1 1019 5 8.0467 0 0
8:15 am 08:15 Cloudy with Mist and Fog 48 9.1 48 8.9 99 99 Calm 30.11 1020 5 8.0467 0 0
8:35 am 08:35 Cloudy with Mist and Fog 49 9.2 48 9 99 99 Calm 30.12 1020 5 8.0467 0 0
8:55 am 08:55 Cloudy with Mist and Fog 49 9.3 48 9 98 98 Calm 30.12 1020 5 8.0467 0 0
9:15 am 09:15 Cloudy with Mist and Fog 49 9.5 48 9 97 97 Calm 30.12 1020 5 8.0467 0 0
9:35 am 09:35 Cloudy with Mist and Fog 49 9.6 48 9 96 96 Calm 30.13 1020 7 11.26538 0 0
9:55 am 09:55 Cloudy 49 9.7 48 9.1 96 96 Calm 30.14 1021 7 11.26538 0 0
10:15 am 10:15 Cloudy 49 9.5 48 9 97 97 NNE 3 6 30.14 1021 10 16.0934 0 0
10:35 am 10:35 Cloudy with Mist and Fog 49 9.4 48 9 97 97 NE 5 7 30.14 1021 5 8.0467 0 0
10:55 am 10:55 Cloudy with Light Rain 49 9.3 49 9.2 99 99 Calm 30.13 1020 3 4.82802 0 0
11:15 am 11:15 Cloudy 49 9.7 49 9.3 97 97 Calm 30.13 1020 10 16.0934 0 0
11:35 am 11:35 Cloudy 50 9.9 48 9 94 94 Calm 30.13 1020 10 16.0934 0 0
11:55 am 11:55 Cloudy 50 10.2 48 8.8 91 91 Calm 30.12 1020 10 16.0934 0 0
12:15 pm 12:15 Cloudy 51 10.3 48 9 92 92 Calm 30.12 1020 10 16.0934 0 0
12:35 pm 12:35 Cloudy 51 10.3 48 9 92 92 Calm 30.12 1020 10 16.0934 0 0
12:55 pm 12:55 Mostly Cloudy 51 10.6 48 9.1 91 91 Calm 30.12 1020 10 16.0934 0 0
1:15 pm 13:15 Cloudy 52 11.3 49 9.5 89 89 Calm 30.1 1019 10 16.0934 0 0
1:35 pm 13:35 Cloudy 52 11.1 48 9 87 87 Calm 30.11 1020 10 16.0934 0 0
1:55 pm 13:55 Cloudy 52 11.1 48 9.1 88 88 Calm 30.1 1019 10 16.0934 0 0
2:15 pm 14:15 Cloudy 52 11.2 49 9.2 88 88 Calm 30.09 1019 10 16.0934 0 0
2:35 pm 14:35 Cloudy 52 11.2 48 8.9 86 86 Calm 30.08 1018 10 16.0934 0 0
2:55 pm 14:55 Cloudy 53 11.4 49 9.2 86 86 Calm 30.07 1018 10 16.0934 0 0
3:15 pm 15:15 Cloudy 53 11.6 49 9.4 86 86 Calm 30.06 1018 10 16.0934 0 0
3:35 pm 15:35 Cloudy 53 11.4 48 9 85 85 Calm 30.06 1018 10 16.0934 0 0
3:55 pm 15:55 Cloudy 53 11.5 48 9 85 85 Calm 30.05 1017 10 16.0934 0 0
4:15 pm 16:15 Cloudy 53 11.6 49 9.3 86 86 Calm 30.03 1017 10 16.0934 0 0
4:35 pm 16:35 Cloudy 53 11.6 49 9.3 86 86 Calm 30.04 1017 10 16.0934 0 0
4:55 pm 16:55 Cloudy 53 11.6 49 9.4 86 86 Calm 30.04 1017 10 16.0934 0 0
5:15 pm 17:15 Cloudy 53 11.6 49 9.3 86 86 Calm 30.02 1017 10 16.0934 0 0
5:35 pm 17:35 Cloudy 53 11.7 49 9.5 87 87 Calm 30.02 1017 10 16.0934 0 0
5:55 pm 17:55 Cloudy 53 11.7 49 9.4 86 86 Calm 30.02 1017 10 16.0934 0 0
6:15 pm 18:15 Cloudy 53 11.6 49 9.6 88 88 Calm 30.03 1017 10 16.0934 0 0
6:35 pm 18:35 Cloudy 53 11.4 49 9.6 89 89 Calm 30.03 1017 10 16.0934 0 0
6:55 pm 18:55 Cloudy 52 11.3 49 9.7 90 90 Calm 30.03 1017 10 16.0934 0 0
7:15 pm 19:15 Cloudy 52 11.2 49 9.6 90 90 Calm 30.03 1017 10 16.0934 0 0
7:35 pm 19:35 Clear 52 10.9 49 9.6 92 92 Calm 30.02 1016 10 16.0934 0 0
7:55 pm 19:55 Clear 51 10.7 49 9.7 94 94 Calm 30.02 1016 10 16.0934 0 0
8:15 pm 20:15 Partly Cloudy 51 10.6 50 10 96 96 Calm 30.02 1017 10 16.0934 0 0
8:35 pm 20:35 Clear 51 10.6 50 10 96 96 Calm 30.01 1016 10 16.0934 0 0
8:55 pm 20:55 Partly Cloudy 51 10.5 50 10.1 97 97 Calm 30 1016 10 16.0934 0 0
9:15 pm 21:15 Cloudy with Drizzle 52 10.9 50 9.9 94 94 Calm 29.99 1015 10 16.0934 0 0
9:35 pm 21:35 Cloudy with Drizzle 52 11 50 10.1 94 94 E 3 6 29.99 1015 10 16.0934 0 0
9:55 pm 21:55 Cloudy with Light Rain 52 10.9 50 10.1 95 95 Calm 29.98 1015 10 16.0934 0.01 0.254
10:15 pm 22:15 Cloudy with Light Rain 51 10.8 51 10.3 97 97 Calm 29.97 1015 7 11.26538 0 0
10:35 pm 22:35 Cloudy with Light Rain 51 10.8 51 10.4 97 97 Calm 29.96 1014 7 11.26538 0.01 0.254
10:55 pm 22:55 Cloudy with Light Rain 51 10.6 51 10.4 99 99 Calm 29.96 1014 5 8.0467 0.05 1.27
11:15 pm 23:15 Cloudy with Rain 51 10.6 51 10.4 99 99 NE 6 9 29.96 1014 7 11.26538 0.03 0.762
11:35 pm 23:35 Cloudy with Light Rain 51 10.5 51 10.4 99 99 ENE 3 6 29.94 1014 5 8.0467 0.05 1.27
11:55 pm 23:55 Cloudy with Rain 51 10.4 51 10.4 100 100 Calm 29.94 1014 5 8.0467 0.1 2.54

Powered by AerisWeather